CW0498 Weather Reports


Display with metric or nautical units.
time (UTC)temp
F
wind
direction
speed
MPH
gust
MPH
rain 1hr
in
rain 24hr
in
rain mn
in
humidity
%
barometer
mb
20260508220040 68 0 0.0 0.0 0.00 0.00 0.00 67 1014.5
20260508214547 68 0 0.0 1.0 0.00 0.00 0.00 67 1014.5
20260508213101 69 0 0.0 1.0 0.00 0.00 0.00 65 1014.5
20260508211539 69 0 0.0 0.0 0.00 0.00 0.00 65 1014.4
20260508210039 69 0 0.0 0.0 0.00 0.00 0.00 66 1014.9
20260508204544 69 0 0.0 0.0 0.00 0.00 0.00 63 1014.4
20260508203047 70 0 0.0 1.0 0.00 0.00 0.00 61 1014.8
20260508201541 70 0 0.0 0.0 0.00 0.00 0.00 61 1015.0
20260508200053 70 229 0.0 1.0 0.00 0.00 0.00 59 1015.1
20260508194545 70 0 0.0 0.0 0.00 0.00 0.00 62 1014.6
20260508193116 70 0 0.0 2.0 0.00 0.00 0.00 60 1015.2
20260508191543 72 0 0.0 1.0 0.00 0.00 0.00 56 1015.3
20260508190041 73 0 0.0 1.0 0.00 0.00 0.00 57 1015.6
20260508184607 72 0 0.0 0.0 0.00 0.00 0.00 57 1015.8
20260508183045 71 0 0.0 2.0 0.00 0.00 0.00 58 1016.0
20260508181543 71 111 0.0 1.0 0.00 0.00 0.00 53 1016.1
20260508180056 69 0 0.0 1.0 0.00 0.00 0.00 61 1016.2
20260508174557 69 251 0.0 0.0 0.00 0.00 0.00 61 1016.3
20260508173037 68 251 0.0 3.0 0.00 0.00 0.00 60 1016.5
20260508171607 67 270 0.0 1.0 0.00 0.00 0.00 70 1016.7
20260508170045 66 0 0.0 2.0 0.00 0.00 0.00 73 1017.1
20260508164544 65 223 1.0 3.0 0.00 0.00 0.00 80 1017.4
20260508163043 64 218 0.0 2.0 0.00 0.00 0.00 84 1017.8
20260508161556 63 0 0.0 2.0 0.00 0.00 0.00 90 1018.0
20260508160040 63 0 0.0 0.0 0.00 0.00 0.00 95 1018.3
20260508154544 61 0 0.0 1.0 0.00 0.00 0.00 96 1018.4
20260508153047 60 0 0.0 2.0 0.00 0.00 0.00 96 1018.6
20260508151549 60 0 0.0 0.0 0.00 0.00 0.00 97 1018.6
20260508150052 59 0 0.0 0.0 0.00 0.00 0.00 97 1018.4
20260508144543 58 0 0.0 0.0 0.00 0.00 0.00 97 1018.7
20260508143039 57 0 0.0 1.0 0.00 0.00 0.00 97 1018.8
20260508141538 56 0 0.0 0.0 0.00 0.00 0.00 97 1018.8
20260508140049 55 0 0.0 1.0 0.00 0.00 0.00 97 1018.5
20260508134545 54 0 0.0 1.0 0.00 0.06 0.00 96 1018.7
20260508133101 54 0 0.0 0.0 0.00 0.06 0.00 97 1018.8
20260508131543 53 0 0.0 0.0 0.00 0.06 0.00 97 1018.8
20260508130047 52 0 0.0 1.0 0.00 0.06 0.00 97 1018.7
20260508124537 52 0 0.0 0.0 0.00 0.17 0.00 96 1018.9
20260508123044 51 0 0.0 0.0 0.00 0.17 0.00 97 1018.6
20260508121545 50 0 0.0 0.0 0.00 0.17 0.00 97 1018.7
20260508120049 49 0 0.0 0.0 0.00 0.17 0.00 97 1018.7
20260508114543 48 0 0.0 0.0 0.00 0.37 0.00 97 1018.0
20260508113049 47 0 0.0 0.0 0.00 0.37 0.00 97 1017.6
20260508111544 47 0 0.0 0.0 0.00 0.37 0.00 97 1017.0
20260508110047 47 0 0.0 0.0 0.00 0.37 0.00 97 1017.0
20260508104545 48 0 0.0 0.0 0.00 0.42 0.00 97 1016.7
20260508103043 48 0 0.0 0.0 0.00 0.42 0.00 97 1016.3
20260508101549 48 0 0.0 0.0 0.00 0.42 0.00 97 1016.3
20260508100049 48 0 0.0 0.0 0.00 0.42 0.00 97 1016.1
20260508094548 48 0 0.0 0.0 0.00 0.42 0.00 97 1015.9
20260508093050 49 0 0.0 0.0 0.00 0.42 0.00 97 1015.8
20260508091608 49 0 0.0 0.0 0.00 0.42 0.00 97 1015.8
20260508090052 49 0 0.0 0.0 0.00 0.42 0.00 97 1015.5
20260508084550 49 0 0.0 0.0 0.00 0.43 0.00 97 1015.4
20260508083041 50 0 0.0 0.0 0.00 0.43 0.00 97 1015.4
20260508081548 50 0 0.0 0.0 0.00 0.43 0.00 97 1015.2
20260508080046 51 0 0.0 0.0 0.00 0.43 0.00 97 1015.2
20260508074537 51 0 0.0 0.0 0.00 0.44 0.00 97 1015.4
20260508073049 51 0 0.0 0.0 0.00 0.44 0.00 97 1015.4
20260508071542 52 0 0.0 0.0 0.00 0.44 0.00 97 1015.2
20260508070040 52 0 0.0 0.0 0.00 0.44 0.00 97 1015.5
20260508064541 52 0 0.0 0.0 0.00 0.49 0.00 97 1015.6
20260508063110 52 0 0.0 0.0 0.00 0.49 0.00 97 1015.5
20260508061546 52 0 0.0 0.0 0.00 0.49 0.00 97 1015.7
20260508060045 53 0 0.0 0.0 0.00 0.49 0.00 97 1016.0
20260508054544 53 0 0.0 0.0 0.00 0.69 0.00 97 1015.9
20260508053052 53 0 0.0 0.0 0.00 0.69 0.00 97 1016.0
20260508051605 53 0 0.0 0.0 0.00 0.69 0.00 97 1015.8
20260508050046 54 0 0.0 0.0 0.00 0.69 0.00 97 1016.0
20260508044544 54 0 0.0 0.0 0.00 1.70 0.00 97 1016.0
20260508043043 54 0 0.0 0.0 0.00 1.70 0.00 97 1015.9
20260508041546 55 0 0.0 0.0 0.00 1.70 0.00 97 1015.6
20260508040040 55 0 0.0 0.0 0.00 1.70 0.00 97 1015.9
20260508034547 55 0 0.0 0.0 0.00 1.97 1.70 97 1015.6
20260508033050 56 0 0.0 0.0 0.00 1.97 1.70 97 1015.7
20260508031543 56 0 0.0 0.0 0.00 1.97 1.70 97 1015.8
20260508030051 56 0 0.0 0.0 0.00 1.97 1.70 97 1015.8
20260508024550 57 0 0.0 0.0 0.00 2.13 1.70 97 1015.7
20260508023048 57 0 0.0 0.0 0.00 2.13 1.70 97 1015.6
20260508021549 57 0 0.0 0.0 0.00 2.13 1.70 97 1015.6
20260508020046 58 0 0.0 0.0 0.00 2.13 1.70 97 1015.4
20260508014544 58 0 0.0 0.0 0.00 2.13 1.70 97 1015.4
20260508013043 58 0 0.0 0.0 0.00 2.13 1.70 97 1015.0
20260508011550 59 0 0.0 0.0 0.00 2.13 1.70 97 1014.8
20260508010058 59 0 0.0 0.0 0.00 2.13 1.70 97 1014.8
20260508004545 60 0 0.0 0.0 0.00 2.16 1.70 97 1014.7
20260508003044 60 0 0.0 0.0 0.00 2.16 1.70 97 1014.3
20260508001545 61 0 0.0 1.0 0.00 2.16 1.70 97 1014.3
20260508000047 62 0 0.0 2.0 0.00 2.16 1.70 97 1014.3
20260507234544 63 0 0.0 1.0 0.00 2.27 1.70 97 1014.2
20260507233045 63 0 0.0 1.0 0.00 2.27 1.70 97 1013.9
20260507231543 63 0 0.0 2.0 0.00 2.27 1.70 97 1013.9
20260507230058 63 0 0.0 4.0 0.00 2.27 1.70 97 1013.9
20260507224542 64 141 0.0 2.0 0.00 2.52 1.70 97 1013.9
20260507223115 64 320 0.0 3.0 0.00 2.52 1.70 97 1013.7
20260507221546 64 323 0.0 2.0 0.00 2.52 1.70 97 1013.5